Wind_Speed
4 6 7 7 8 7 7 7 8 9 9 9 10 10 10 10 10 10 10 10 11 11 11 12 12 13 13 14 14 14 15 15 16 16 16 17 17 17 18 19 19 19 20 20 20 21 21 22 22
4 5 6 7 7 7 7 7 8 8 8 8 9 9 9 10 10 10 10 10 11 11 11 11 12 12 13 14 14 14 15 15 16 17 17 18 18 19 19 20 20 21 21 21 21 22 22 22 23
5 5 6 6 7 7 7 7 7 8 7 7 8 8 8 9 9 9 10 10 11 11 11 11 12 12 12 13 14 14 15 16 17 18 18 19 19 20 20 20 21 21 21 22 22 22 22 22 22
6 5 6 6 6 6 6 6 6 6 6 6 6 7 7 8 9 9 10 10 10 11 11 11 12 12 13 14 14 15 16 17 17 18 19 19 19 20 20 21 21 22 22 22 22 22 23 23 23
8 7 6 6 6 6 6 6 5 6 6 6 6 7 7 8 9 10 10 11 11 11 12 12 13 14 14 15 16 16 17 18 18 19 19 20 20 20 21 21 22 22 22 22 23 23 24 24 24
11 9 8 8 8 8 7 7 6 7 7 7 7 8 8 8 9 10 11 11 12 12 12 13 13 14 14 15 16 17 18 18 19 19 20 20 21 21 21 21 21 22 22 23 24 24 24 25 25
13 12 11 10 10 9 9 9 9 8 8 8 8 9 9 9 9 10 11 12 12 13 13 14 14 15 16 17 17 18 19 19 20 20 21 21 21 21 21 22 22 23 23 24 24 25 25 26 26
17 15 14 13 12 12 11 11 10 10 9 9 9 9 9 10 10 10 11 12 13 14 15 16 16 17 17 18 19 19 20 20 21 21 21 22 22 22 23 23 23 24 24 25 25 26 26 27 27
19 18 17 16 15 14 13 13 12 12 11 11 11 11 11 11 12 12 12 13 14 14 15 16 17 17 18 19 19 20 20 21 22 22 23 23 23 23 24 24 24 25 26 26 26 27 27 27 28
21 20 20 19 18 17 16 15 15 14 14 14 14 14 13 13 13 14 14 14 15 15 16 17 18 18 19 20 20 21 22 22 23 23 24 24 24 24 24 25 25 26 26 26 27 27 28 28 29
24 23 23 22 21 20 19 18 17 16 17 17 16 16 16 16 16 16 16 16 17 17 18 18 19 20 21 21 22 23 23 23 24 24 24 25 25 25 26 26 26 27 27 27 27 28 28 29 30
27 26 26 25 24 22 22 21 20 19 19 19 18 18 18 18 18 18 18 19 19 20 20 20 21 22 22 23 23 24 24 25 25 26 26 26 26 26 27 27 27 27 28 28 28 29 29 30 30
30 29 28 28 27 25 24 23 22 22 22 21 21 20 20 20 20 20 21 21 22 22 22 22 23 23 24 25 25 25 26 26 27 27 27 27 27 27 28 28 28 28 28 29 29 29 30 30 31
32 31 31 30 29 28 27 26 25 25 25 24 23 23 23 23 23 23 23 23 24 24 24 24 24 25 26 26 26 27 27 28 28 28 28 28 28 28 28 28 28 28 29 29 30 30 31 32 33
35 34 33 33 32 31 30 29 29 29 28 27 26 26 26 26 25 25 25 25 26 26 26 26 26 26 27 27 28 28 29 29 29 29 29 29 29 29 29 29 29 29 30 30 31 32 32 33 34
36 36 35 35 35 34 33 31 32 31 30 29 29 29 29 29 28 28 27 27 27 27 27 28 28 27 28 28 29 29 30 30 30 30 30 30 30 29 29 30 30 31 31 31 32 33 34 34 35
37 36 36 37 37 36 35 33 34 34 33 32 32 32 31 31 31 30 30 29 29 29 29 29 29 29 30 30 30 31 31 31 31 31 31 31 31 31 31 31 31 32 32 33 34 34 35 36 37
37 37 37 38 39 39 38 35 35 36 35 33 34 34 34 33 33 32 32 31 31 31 31 31 31 31 31 31 31 32 32 32 32 31 32 32 32 31 31 32 32 33 34 35 35 36 37 37 38
39 39 38 39 41 41 40 38 36 37 37 35 35 35 35 35 35 33 32 32 32 32 32 32 32 32 32 32 32 32 32 32 32 32 32 32 32 32 33 33 34 35 35 36 37 38 38 38 39
40 40 39 39 41 42 41 39 36 37 37 37 36 36 37 36 36 35 34 33 33 33 33 32 32 32 33 33 33 33 33 33 33 33 33 33 33 34 34 35 36 37 37 38 39 39 40 40 41
40 39 38 39 41 43 42 39 36 36 38 39 39 38 38 37 37 36 35 34 34 34 34 33 33 33 33 33 33 34 34 34 34 34 34 34 34 35 36 37 37 38 39 40 40 41 42 42 43
40 38 38 39 41 42 42 41 34 35 36 38 39 39 38 38 38 37 36 35 35 34 34 34 34 33 33 34 34 34 34 34 34 34 34 35 35 36 37 38 39 40 40 41 42 43 43 44 44
39 39 39 40 40 41 40 42 35 33 34 36 38 38 38 38 38 37 36 36 36 35 34 34 33 33 34 34 34 34 34 34 34 34 35 35 36 37 38 39 40 41 42 43 43 44 44 45 46
41 40 40 40 40 41 38 40 38 33 33 34 36 37 37 37 36 36 36 36 35 34 34 34 34 34 34 33 33 33 34 34 34 35 35 36 37 38 39 40 42 43 43 44 45 45 46 47 47
40 39 40 41 41 42 38 38 37 34 33 33 34 35 36 36 36 35 35 35 35 35 34 35 34 34 33 33 33 34 34 34 35 35 36 37 38 39 40 42 43 44 45 45 46 47 48 48 49
38 39 40 41 42 41 39 37 33 32 31 31 32 34 35 35 35 35 35 35 34 34 34 34 34 33 33 33 33 34 34 34 35 36 37 39 39 40 42 43 44 45 46 46 47 48 49 50 50
40 39 38 40 42 41 40 36 31 30 31 31 31 31 32 33 34 34 33 33 33 33 33 33 33 33 33 33 33 33 34 34 36 37 38 39 40 42 43 44 45 46 47 48 48 49 50 51 52
40 39 39 40 41 41 39 35 30 28 30 31 31 31 31 32 32 32 32 32 33 33 32 32 32 32 32 32 32 33 34 35 37 38 39 40 42 43 44 45 46 47 48 48 49 51 52 52 52
39 39 39 40 41 40 39 35 29 28 29 30 30 29 29 30 31 31 31 31 31 31 30 30 31 31 31 32 33 34 35 37 38 39 40 42 43 44 45 46 47 47 48 50 51 52 52 53 53
40 39 39 39 39 38 38 36 30 28 29 30 30 30 29 29 30 30 30 30 30 30 30 30 30 31 32 33 34 36 37 38 39 40 42 43 44 44 45 46 47 48 50 51 52 53 53 53 54
Wind_Direction
110 112 114 121 127 129 139 153 166 176 185 196 202 205 208 212 218 222 226 231 236 241 247 252 256 259 261 263 265 268 271 273 276 277 278 279 280 281 282 284 285 286 287 288 288 288 289 289 289
130 124 124 125 128 132 137 144 156 165 176 187 197 204 211 214 218 222 228 233 240 246 251 255 259 262 264 266 268 271 274 276 278 279 281 282 283 284 284 285 286 286 287 287 287 288 288 289 289
157 143 137 136 138 140 141 142 148 157 167 179 190 201 210 215 220 224 229 237 244 249 253 256 261 264 267 270 272 274 276 278 279 280 281 283 283 284 284 285 286 286 286 287 287 287 288 288 289
181 172 162 156 155 156 155 154 155 164 173 180 192 203 213 221 225 229 234 240 247 252 255 258 263 267 271 273 275 277 279 280 281 282 282 283 284 284 285 285 286 287 287 287 288 288 288 288 288
200 194 186 181 181 178 178 178 179 186 191 198 206 215 223 230 233 236 241 247 251 255 259 263 266 269 272 275 278 280 281 282 282 283 283 284 284 285 285 286 286 286 287 287 288 288 288 288 288
212 208 204 201 202 200 200 202 205 209 214 220 226 230 233 238 241 243 247 250 255 258 261 264 267 270 273 277 279 281 282 283 283 284 284 284 284 284 285 285 286 286 286 287 287 287 287 287 287
218 215 212 212 215 214 215 217 220 225 226 229 234 238 240 244 248 250 252 254 258 261 263 267 269 272 275 278 280 281 281 282 283 283 284 284 284 284 285 286 286 287 287 287 287 287 287 287 287
223 221 218 217 219 222 224 225 227 230 232 234 239 244 247 249 252 254 257 261 263 265 267 270 271 273 275 277 279 280 282 282 283 283 283 283 284 284 285 286 286 287 287 288 288 288 287 287 287
225 225 223 222 222 225 227 228 230 233 236 240 244 249 253 255 258 260 262 265 266 268 270 272 273 275 277 278 280 281 282 282 283 284 284 284 284 285 285 286 286 287 287 288 288 288 288 287 287
228 226 226 226 227 228 230 231 233 236 240 244 248 252 255 259 261 263 265 267 269 270 272 274 276 277 279 280 281 282 282 283 284 285 285 285 284 285 286 286 287 287 288 288 288 289 288 288 288
230 229 228 229 231 232 233 235 237 239 243 247 250 254 257 260 262 264 267 269 271 273 274 276 277 279 280 280 282 283 283 283 284 285 285 285 284 285 286 287 288 288 288 288 289 289 290 290 289
232 231 232 232 232 233 235 237 239 242 245 248 251 254 257 260 263 265 268 271 273 275 277 278 279 279 280 281 282 283 283 284 285 285 285 284 284 285 286 288 288 289 289 290 290 290 291 291 290
234 234 236 236 235 235 237 238 240 244 246 249 251 254 258 261 264 267 270 272 274 276 278 279 279 280 280 281 282 283 283 283 284 285 285 284 283 284 285 287 288 289 290 290 291 291 292 291 291
236 237 238 238 238 238 239 240 242 245 248 251 253 255 258 261 263 267 270 273 275 276 277 279 279 280 280 281 282 282 283 283 283 284 284 283 283 284 285 287 288 289 289 290 291 291 291 291 291
237 239 239 240 241 242 242 243 245 247 250 252 254 257 259 261 263 265 268 271 273 275 276 278 279 280 280 281 282 282 282 283 283 283 283 283 283 284 286 287 289 289 290 290 291 292 292 292 292
239 240 242 243 244 244 245 246 248 249 251 253 256 258 260 262 263 265 267 269 272 274 275 277 278 279 280 281 282 282 282 282 282 282 283 283 284 285 286 287 288 290 290 291 292 293 293 294 294
239 241 242 244 245 246 246 246 251 252 253 255 257 259 260 261 263 265 266 269 271 273 275 276 277 278 280 280 281 282 282 282 282 282 282 282 283 285 286 287 289 290 291 292 293 294 294 295 295
241 242 243 245 247 247 248 247 251 254 255 256 258 260 261 262 263 264 266 268 269 271 273 275 276 278 279 280 280 281 282 281 281 281 282 282 283 284 286 288 289 291 292 293 294 294 295 295 295
241 242 243 245 249 250 250 250 251 255 257 258 259 261 262 263 264 266 267 268 269 270 273 274 276 277 278 279 279 280 281 281 281 281 282 282 283 285 287 288 290 291 292 293 294 295 295 295 295
241 243 244 246 250 252 252 251 252 255 259 260 261 262 263 264 266 267 268 269 269 270 272 273 274 276 277 277 278 279 280 281 280 280 281 282 283 285 287 288 290 291 293 294 295 295 296 295 295
242 244 246 247 250 253 254 253 253 256 259 261 262 263 264 265 266 267 269 269 269 270 271 272 273 274 275 276 278 279 279 280 280 280 281 282 284 286 288 289 291 292 293 294 295 296 296 296 296
243 245 247 249 250 253 256 257 252 256 259 261 263 264 264 265 266 267 268 269 269 270 270 270 272 274 275 276 277 278 279 279 279 280 281 283 285 287 289 290 291 293 294 295 296 296 296 296 296
244 245 248 250 252 254 256 261 256 256 258 261 263 263 264 265 266 267 268 268 268 269 269 270 272 273 274 275 275 277 278 279 280 281 282 284 286 288 289 291 293 294 295 296 296 296 296 296 296
243 245 248 251 254 256 257 262 262 259 259 259 261 263 265 265 266 266 267 267 268 268 268 270 271 273 274 274 275 276 277 279 280 281 283 285 286 288 290 292 294 295 296 296 296 296 296 296 296
242 246 249 252 254 257 258 261 265 264 262 261 261 263 264 265 266 267 267 267 267 267 268 269 270 272 272 273 275 276 277 278 280 281 283 285 287 289 291 293 294 295 296 296 296 297 297 297 297
242 245 249 254 257 259 259 261 264 266 265 264 262 262 264 265 265 266 267 267 266 267 268 269 270 270 271 272 274 275 277 279 280 282 284 286 289 291 292 294 295 296 296 296 297 297 298 298 298
239 243 248 253 256 259 260 262 263 266 267 266 265 264 264 265 265 265 265 265 265 266 267 268 269 269 270 271 273 275 277 279 281 284 286 288 290 291 293 294 295 296 296 297 298 298 299 299 298
238 241 244 249 255 259 261 263 266 266 267 267 267 266 264 264 264 264 264 264 265 266 267 267 268 268 269 271 273 276 278 280 282 285 287 288 290 291 293 294 295 296 297 297 298 299 299 299 299
238 241 245 249 254 259 264 265 265 267 267 267 267 267 266 265 265 265 264 264 265 266 266 266 267 268 269 271 274 276 278 280 283 285 287 288 290 292 293 294 296 297 298 298 299 299 300 300 300
236 240 244 249 254 258 262 265 266 267 267 266 266 266 266 265 264 264 264 265 265 265 266 266 267 268 270 272 274 277 279 281 283 285 287 289 291 293 294 296 296 297 298 299 299 300 300 300 300
Height
5869 5869 5869 5870 5871 5871 5871 5871 5871 5872 5873 5875 5876 5877 5878 5880 5881 5884 5882 5881 5882 5882 5882 5882 5883 5883 5882 5882 5882 5882 5882 5882 5881 5881 5881 5880 5879 5879 5878 5877 5876 5875 5874 5873 5872 5871 5870 5869 5868
5869 5869 5870 5870 5870 5871 5871 5871 5871 5872 5873 5874 5875 5876 5877 5878 5879 5879 5879 5880 5880 5880 5880 5881 5881 5881 5881 5881 5881 5880 5880 5880 5879 5879 5878 5877 5877 5876 5875 5874 5873 5872 5871 5870 5869 5868 5866 5865 5864
5869 5869 5870 5870 5870 5871 5871 5871 5871 5872 5872 5873 5874 5875 5876 5876 5877 5877 5878 5878 5878 5879 5879 5879 5879 5879 5879 5879 5878 5878 5878 5877 5877 5876 5875 5875 5874 5873 5872 5871 5870 5869 5867 5866 5865 5864 5863 5861 5860
5869 5869 5870 5871 5870 5870 5871 5871 5871 5871 5872 5873 5874 5874 5875 5875 5876 5876 5876 5877 5877 5877 5877 5877 5877 5877 5877 5876 5876 5876 5875 5875 5874 5873 5872 5871 5870 5869 5868 5867 5866 5865 5864 5862 5861 5860 5859 5857 5856
5868 5868 5869 5869 5869 5870 5870 5870 5870 5871 5871 5872 5873 5873 5874 5874 5874 5874 5875 5875 5875 5875 5875 5875 5875 5875 5874 5874 5874 5873 5872 5872 5871 5870 5869 5868 5867 5866 5865 5864 5862 5861 5860 5858 5857 5856 5854 5853 5852
5867 5868 5868 5868 5868 5869 5869 5869 5870 5870 5870 5871 5871 5872 5872 5872 5872 5873 5873 5873 5873 5873 5873 5873 5872 5872 5872 5871 5871 5870 5869 5869 5868 5867 5866 5865 5864 5862 5861 5860 5858 5857 5856 5854 5853 5851 5850 5849 5847
5865 5866 5866 5866 5867 5867 5868 5868 5868 5869 5869 5869 5869 5870 5870 5870 5871 5871 5871 5871 5871 5870 5870 5870 5870 5869 5869 5868 5868 5867 5866 5865 5864 5863 5862 5861 5860 5859 5857 5856 5854 5853 5851 5850 5848 5847 5845 5844 5842
5862 5864 5863 5864 5865 5865 5866 5866 5866 5867 5867 5868 5868 5868 5868 5869 5868 5868 5868 5868 5868 5868 5868 5867 5867 5866 5866 5865 5864 5863 5862 5861 5860 5859 5858 5857 5856 5854 5853 5851 5850 5848 5847 5845 5843 5842 5840 5838 5837
5858 5861 5861 5861 5862 5863 5863 5863 5864 5864 5865 5865 5865 5866 5866 5866 5866 5866 5865 5865 5865 5865 5865 5864 5863 5863 5862 5861 5860 5859 5858 5857 5856 5855 5854 5853 5851 5850 5848 5847 5845 5844 5842 5840 5838 5837 5835 5833 5831
5854 5856 5857 5858 5859 5859 5860 5860 5861 5862 5862 5862 5862 5862 5862 5862 5862 5862 5862 5862 5862 5862 5861 5861 5860 5859 5858 5857 5856 5855 5854 5853 5852 5851 5850 5848 5847 5845 5844 5842 5840 5839 5837 5835 5833 5831 5829 5827 5825
5849 5851 5852 5853 5854 5855 5856 5857 5858 5858 5859 5859 5859 5859 5859 5859 5859 5858 5858 5858 5858 5858 5857 5857 5856 5855 5854 5853 5852 5851 5850 5849 5848 5846 5845 5843 5842 5840 5839 5837 5835 5833 5831 5829 5827 5825 5823 5821 5819
5844 5845 5846 5848 5849 5851 5852 5853 5854 5854 5855 5855 5855 5855 5855 5855 5854 5854 5854 5854 5854 5853 5853 5852 5851 5850 5849 5848 5847 5846 5845 5844 5843 5841 5840 5838 5837 5835 5833 5831 5829 5827 5825 5823 5821 5819 5817 5815 5812
5837 5839 5841 5843 5844 5846 5847 5848 5849 5850 5849 5850 5850 5851 5851 5850 5850 5850 5849 5849 5849 5848 5848 5847 5847 5846 5844 5843 5842 5841 5840 5839 5837 5836 5834 5833 5831 5829 5828 5826 5824 5822 5819 5817 5815 5813 5810 5808 5806
5831 5833 5835 5837 5838 5840 5842 5843 5844 5844 5844 5845 5846 5846 5846 5846 5845 5845 5845 5844 5843 5843 5842 5842 5841 5840 5839 5838 5837 5836 5835 5833 5832 5830 5829 5827 5825 5823 5822 5820 5818 5815 5813 5811 5809 5806 5804 5801 5799
5824 5827 5829 5830 5832 5834 5836 5838 5838 5838 5839 5840 5840 5840 5840 5840 5840 5840 5839 5839 5838 5837 5837 5836 5835 5834 5833 5832 5831 5830 5829 5827 5826 5824 5823 5821 5819 5817 5815 5813 5811 5809 5807 5804 5802 5799 5797 5794 5791
5817 5820 5822 5824 5825 5827 5830 5832 5831 5832 5833 5834 5834 5834 5834 5834 5834 5834 5834 5833 5832 5831 5831 5830 5829 5829 5827 5826 5825 5824 5822 5821 5819 5818 5816 5814 5813 5811 5809 5807 5804 5802 5800 5797 5795 5792 5789 5786 5784
5809 5812 5815 5816 5817 5819 5822 5825 5824 5825 5826 5827 5828 5828 5828 5828 5828 5827 5827 5827 5826 5825 5824 5823 5823 5822 5821 5820 5819 5817 5816 5814 5813 5811 5810 5808 5806 5804 5802 5800 5798 5795 5793 5790 5787 5785 5782 5779 5776
5803 5804 5807 5808 5809 5811 5813 5817 5817 5816 5818 5820 5820 5820 5821 5821 5820 5820 5821 5820 5819 5818 5817 5817 5816 5815 5814 5813 5812 5810 5809 5807 5806 5804 5803 5801 5799 5797 5795 5793 5790 5788 5785 5782 5780 5777 5774 5771 5767
5793 5795 5798 5800 5800 5802 5804 5808 5810 5809 5810 5812 5813 5812 5813 5813 5812 5813 5813 5813 5812 5811 5810 5809 5809 5808 5807 5806 5804 5803 5802 5800 5799 5797 5795 5794 5792 5790 5788 5786 5783 5780 5778 5775 5772 5769 5766 5762 5759
5784 5787 5791 5792 5792 5793 5796 5799 5802 5802 5802 5804 5804 5804 5804 5805 5805 5805 5805 5805 5804 5804 5803 5802 5801 5800 5799 5798 5797 5796 5795 5793 5791 5790 5788 5786 5785 5783 5780 5778 5775 5772 5770 5767 5763 5760 5757 5754 5750
5776 5780 5783 5784 5784 5784 5786 5791 5795 5795 5794 5795 5795 5796 5796 5796 5796 5796 5797 5796 5796 5796 5795 5794 5793 5793 5792 5790 5789 5788 5787 5785 5784 5782 5781 5779 5777 5775 5773 5770 5767 5764 5761 5758 5755 5751 5748 5745 5741
5769 5772 5773 5774 5776 5777 5778 5780 5788 5787 5787 5786 5786 5787 5787 5787 5788 5788 5788 5788 5787 5787 5787 5786 5785 5785 5784 5783 5782 5780 5779 5778 5777 5775 5773 5771 5769 5767 5764 5761 5759 5756 5752 5749 5746 5742 5738 5735 5731
5760 5762 5764 5766 5767 5768 5770 5770 5778 5780 5779 5778 5778 5778 5778 5779 5779 5779 5779 5779 5779 5778 5778 5778 5777 5776 5776 5775 5774 5772 5771 5770 5769 5767 5765 5763 5761 5758 5756 5753 5750 5747 5743 5740 5736 5732 5728 5724 5720
5751 5754 5755 5756 5758 5760 5764 5762 5766 5770 5771 5770 5769 5769 5769 5769 5770 5770 5770 5770 5770 5770 5770 5769 5769 5768 5767 5766 5765 5765 5764 5762 5761 5759 5757 5755 5752 5750 5747 5744 5741 5737 5733 5730 5726 5722 5718 5714 5709
5743 5746 5748 5748 5749 5752 5754 5755 5758 5760 5761 5761 5761 5760 5760 5761 5761 5761 5761 5762 5761 5761 5761 5760 5760 5760 5759 5758 5757 5756 5755 5754 5752 5750 5748 5746 5743 5741 5738 5734 5731 5727 5723 5719 5715 5711 5707 5702 5698
5735 5738 5740 5741 5742 5743 5744 5746 5751 5751 5751 5751 5752 5752 5752 5752 5752 5753 5753 5753 5753 5752 5752 5752 5752 5751 5751 5750 5749 5748 5747 5746 5744 5742 5739 5737 5734 5731 5728 5724 5721 5717 5713 5709 5704 5700 5695 5691 5686
5726 5728 5732 5732 5732 5733 5735 5739 5743 5743 5742 5742 5742 5743 5743 5743 5744 5744 5744 5744 5744 5744 5744 5744 5743 5743 5742 5742 5741 5740 5738 5737 5735 5733 5730 5728 5725 5721 5718 5714 5710 5706 5702 5697 5693 5688 5684 5679 5674
5717 5720 5722 5722 5723 5724 5727 5730 5735 5735 5734 5733 5734 5734 5734 5735 5735 5735 5735 5735 5735 5735 5735 5735 5735 5735 5734 5734 5733 5731 5730 5728 5726 5724 5721 5718 5715 5711 5707 5704 5700 5695 5691 5686 5681 5677 5672 5667 5661
5709 5711 5713 5715 5716 5717 5718 5724 5726 5726 5726 5725 5725 5725 5726 5726 5726 5726 5727 5727 5727 5727 5727 5727 5727 5726 5726 5725 5724 5723 5721 5719 5717 5714 5711 5708 5704 5701 5697 5693 5689 5684 5680 5675 5670 5665 5659 5654 5649
5699 5702 5705 5707 5708 5710 5711 5716 5717 5718 5717 5717 5717 5717 5717 5718 5718 5718 5718 5719 5719 5719 5719 5719 5718 5718 5717 5717 5715 5714 5712 5710 5707 5704 5701 5697 5694 5690 5686 5682 5677 5673 5668 5663 5658 5653 5647 5642 5636